Time,TemperatureF,DewpointF,PressureIn,WindDirection,WindDirectionDegrees,WindSpeedMPH,WindSpeedGustMPH,Humidity,HourlyPrecipIn,Conditions,Clouds,dailyrainin,SoftwareType,DateUTC
2013-03-05 00:05:00,25.8,19.0,29.81,NNW,337,10.0,20.0,75,0.00,,,-99.99,WeatherLink 5.5,2013-03-05 05:05:00,
2013-03-05 01:00:00,25.6,19.1,29.83,NNW,337,6.0,16.0,76,0.00,,,-99.99,WeatherLink 5.5,2013-03-05 06:00:00,
2013-03-05 01:05:00,25.6,19.1,29.83,NNW,337,6.0,16.0,76,0.00,,,-99.99,WeatherLink 5.5,2013-03-05 06:05:00,
2013-03-05 02:00:00,25.6,19.1,29.83,NNW,337,6.0,14.0,76,0.00,,,-99.99,WeatherLink 5.5,2013-03-05 07:00:00,
2013-03-05 02:05:00,25.6,19.1,29.83,NNW,337,6.0,14.0,76,0.00,,,-99.99,WeatherLink 5.5,2013-03-05 07:05:00,
2013-03-05 03:00:00,25.4,18.9,29.84,NW,315,7.0,19.0,76,0.00,,,-99.99,WeatherLink 5.5,2013-03-05 08:00:00,
2013-03-05 03:05:00,25.4,18.9,29.84,NW,315,7.0,19.0,76,0.00,,,-99.99,WeatherLink 5.5,2013-03-05 08:05:00,
2013-03-05 04:00:00,24.8,18.9,29.86,NNW,337,6.0,14.0,78,0.00,,,-99.99,WeatherLink 5.5,2013-03-05 09:00:00,
2013-03-05 04:05:00,24.8,18.9,29.86,NNW,337,6.0,14.0,78,0.00,,,-99.99,WeatherLink 5.5,2013-03-05 09:05:00,
2013-03-05 05:00:00,24.7,19.1,29.88,NNW,337,5.0,12.0,79,0.00,,,-99.99,WeatherLink 5.5,2013-03-05 10:00:00,
2013-03-05 05:05:00,24.7,19.1,29.88,NNW,337,5.0,12.0,79,0.00,,,-99.99,WeatherLink 5.5,2013-03-05 10:05:00,
2013-03-05 06:00:00,25.3,19.7,29.90,North,0,3.0,16.0,79,0.00,,,-99.99,WeatherLink 5.5,2013-03-05 11:00:00,
2013-03-05 06:05:00,25.3,19.7,29.90,North,0,3.0,16.0,79,0.00,,,-99.99,WeatherLink 5.5,2013-03-05 11:05:00,
2013-03-05 07:00:00,27.9,21.0,29.91,North,0,7.0,20.0,75,0.00,,,-99.99,WeatherLink 5.5,2013-03-05 12:00:00,
2013-03-05 07:05:00,27.9,21.0,29.91,North,0,7.0,20.0,75,0.00,,,-99.99,WeatherLink 5.5,2013-03-05 12:05:00,
2013-03-05 08:00:00,32.4,22.3,29.93,North,0,6.0,20.0,66,0.00,,,-99.99,WeatherLink 5.5,2013-03-05 13:00:00,
2013-03-05 09:00:00,32.9,22.4,29.94,North,0,7.0,24.0,65,0.00,,,-99.99,WeatherLink 5.5,2013-03-05 14:00:00,
2013-03-05 09:05:00,32.9,22.4,29.94,North,0,7.0,24.0,65,0.00,,,-99.99,WeatherLink 5.5,2013-03-05 14:05:00,
2013-03-05 10:00:00,36.2,22.8,29.93,North,0,6.0,20.0,58,0.00,,,-99.99,WeatherLink 5.5,2013-03-05 15:00:00,
2013-03-05 10:05:00,36.2,22.8,29.93,North,0,6.0,20.0,58,0.00,,,-99.99,WeatherLink 5.5,2013-03-05 15:05:00,
2013-03-05 11:00:00,36.6,23.2,29.93,North,0,6.0,17.0,58,0.00,,,-99.99,WeatherLink 5.5,2013-03-05 16:00:00,
2013-03-05 11:05:00,36.6,23.2,29.93,North,0,6.0,17.0,58,0.00,,,-99.99,WeatherLink 5.5,2013-03-05 16:05:00,
2013-03-05 12:00:00,40.5,24.2,29.92,North,0,6.0,19.0,52,0.00,,,-99.99,WeatherLink 5.5,2013-03-05 17:00:00,
2013-03-05 12:05:00,40.5,24.2,29.92,North,0,6.0,19.0,52,0.00,,,-99.99,WeatherLink 5.5,2013-03-05 17:05:00,
2013-03-05 13:00:00,40.8,24.1,29.91,North,0,4.0,13.0,51,0.00,,,-99.99,WeatherLink 5.5,2013-03-05 18:00:00,
2013-03-05 13:05:00,40.8,24.1,29.91,North,0,4.0,13.0,51,0.00,,,-99.99,WeatherLink 5.5,2013-03-05 18:05:00,
2013-03-05 14:00:00,41.2,23.5,29.92,North,0,4.0,13.0,49,0.00,,,-99.99,WeatherLink 5.5,2013-03-05 19:00:00,
2013-03-05 14:05:00,41.2,23.5,29.92,North,0,4.0,13.0,49,0.00,,,-99.99,WeatherLink 5.5,2013-03-05 19:05:00,
2013-03-05 15:00:00,42.3,24.0,29.93,North,0,4.0,14.0,48,0.00,,,-99.99,WeatherLink 5.5,2013-03-05 20:00:00,
2013-03-05 15:05:00,42.3,24.0,29.93,North,0,4.0,14.0,48,0.00,,,-99.99,WeatherLink 5.5,2013-03-05 20:05:00,
2013-03-05 16:00:00,40.9,23.7,29.93,North,0,3.0,11.0,50,0.00,,,-99.99,WeatherLink 5.5,2013-03-05 21:00:00,
2013-03-05 16:05:00,40.9,23.7,29.93,North,0,3.0,11.0,50,0.00,,,-99.99,WeatherLink 5.5,2013-03-05 21:05:00,
2013-03-05 17:00:00,38.2,23.9,29.93,ENE,67,3.0,12.0,56,0.00,,,-99.99,WeatherLink 5.5,2013-03-05 22:00:00,
2013-03-05 17:05:00,38.2,23.9,29.93,ENE,67,3.0,12.0,56,0.00,,,-99.99,WeatherLink 5.5,2013-03-05 22:05:00,
2013-03-05 18:00:00,35.9,23.4,29.95,North,0,2.0,10.0,60,0.00,,,-99.99,WeatherLink 5.5,2013-03-05 23:00:00,
2013-03-05 18:05:00,35.9,23.4,29.95,North,0,2.0,10.0,60,0.00,,,-99.99,WeatherLink 5.5,2013-03-05 23:05:00,
2013-03-05 19:00:00,34.6,24.0,29.96,NE,45,1.0,8.0,65,0.00,,,-99.99,WeatherLink 5.5,2013-03-06 00:00:00,
2013-03-05 19:05:00,34.6,24.0,29.96,NE,45,1.0,8.0,65,0.00,,,-99.99,WeatherLink 5.5,2013-03-06 00:05:00,
2013-03-05 20:00:00,33.8,24.0,29.96,NE,45,2.0,8.0,67,0.00,,,-99.99,WeatherLink 5.5,2013-03-06 01:00:00,
2013-03-05 20:05:00,33.8,24.0,29.96,NE,45,2.0,8.0,67,0.00,,,-99.99,WeatherLink 5.5,2013-03-06 01:05:00,
2013-03-05 21:00:00,33.4,24.0,29.97,ENE,67,3.0,8.0,68,0.00,,,-99.99,WeatherLink 5.5,2013-03-06 02:00:00,
2013-03-05 21:05:00,33.4,24.0,29.97,ENE,67,3.0,8.0,68,0.00,,,-99.99,WeatherLink 5.5,2013-03-06 02:05:00,
2013-03-05 22:00:00,33.2,24.1,29.95,ENE,67,3.0,7.0,69,0.00,,,-99.99,WeatherLink 5.5,2013-03-06 03:00:00,
2013-03-05 22:05:00,33.2,24.1,29.95,ENE,67,3.0,7.0,69,0.00,,,-99.99,WeatherLink 5.5,2013-03-06 03:05:00,
2013-03-05 23:00:00,33.2,24.1,29.94,ENE,67,2.0,7.0,69,0.00,,,-99.99,WeatherLink 5.5,2013-03-06 04:00:00,
2013-03-05 23:05:00,33.2,24.1,29.94,ENE,67,2.0,7.0,69,0.00,,,-99.99,WeatherLink 5.5,2013-03-06 04:05:00,